www.pogodaiklimat.ru

Погода и климат >> Архив погоды >> Украина >> Белополе


ПОГОДА в Белополе

  • Прогноз погоды в Белополе
  • Монитор погоды в Белополе
  • Климат города

АРХИВ ПОГОДЫ в Белополе

Время (UTC), дата Ветер
(напр.,м/с)
 
Видим.   Явления Облачность Т
(С)
Тd
(С)
f
(%)
Тe
(С)
Тes
(С)
Комфортность P
(гПа)
Po
(гПа)
Тmin
(С)
Tmax
(С)
R
(мм)
R24
(мм)
S
(см)
15 17.11 Ю 1 10 км 10 баллов +2.8 +0.7 86 +1 +1 1024.0 991.8
18 17.11 ЮЗ 1 10 км 10 баллов +2.6 +0.5 86 +1 +1 1023.0 990.8 +4.1
21 17.11 Ю 2 10 км 10 баллов +2.4 +0.8 89 -1 -1 1023.0 990.8
00 18.11 Ю 1 10 км 10 баллов +2.4 +0.8 89 +1 +1 1022.0 989.8
03 18.11 ЮЗ 1 4000 м дымка 10 баллов +2.3 +1.4 94 +1 +1 1021.0 988.8
06 18.11 Ю 2 3200 м дымка 10 баллов +2.4 +1.8 96 -1 -1 1020.0 987.9 +2.2 0.4
09 18.11 Ю 1 6000 м дымка 10 баллов +3.6 +2.6 93 +2 +2 1020.0 988.0
12 18.11 ЮВ 1 7000 м дождь 10 баллов +4.0 +3.0 93 +2 +2 1018.0 986.1 0.5
15 18.11 ЮВ 1 4000 м дымка 10 баллов +3.7 +2.7 93 +2 +2 1016.0 984.1
18 18.11 штиль 0 4000 м дождь 10 баллов +3.2 +2.8 97 +2 +2 1015.0 983.1 +4.3 2
21 18.11 ЮЗ 1 4000 м дождь 10 баллов +3.1 +2.5 96 +1 +1 1014.0 982.1
00 19.11 ЮЗ 1 4000 м дымка 10 баллов +3.2 +2.3 94 +2 +2 1012.0 980.2 2
03 19.11 ЮЗ 1 4000 м дымка 10 баллов +3.2 +2.8 97 +1 +1 1010.0 978.3
06 19.11 З 2 8000 м дымка 10 баллов +2.4 +1.5 94 -1 -1 1010.0 978.2 +2.4 2
09 19.11 З 2 10 км 10 баллов +3.0 +1.4 89 -0 -0 1010.0 978.2
12 19.11 З 2 10 км 10 баллов +3.7 +2.2 90 +1 +1 1010.0 978.3
15 19.11 штиль 0 4000 м 10 баллов +2.1 +0.8 91 +1 +1 1010.0 978.1
18 19.11 З 1 4000 м 3 балла +1.4 +0.2 92 -1 -1 1011.0 979.0 +3.8
21 19.11 З 1 4000 м ясно -0.7 -1.8 92 -3 -3 1012.0 979.7
00 20.11 ЮЗ 1 4000 м дымка ясно -1.3 -2.1 94 -4 -4 1012.0 979.7
03 20.11 штиль 0 4000 м дымка ясно -2.0 -2.8 94 -3 -3 1011.0 978.6
06 20.11 штиль 0 8000 м дымка 3 балла -3.3 -4.0 95 -5 -5 1012.0 979.4 -3.3
09 20.11 З 1 4000 м 10 баллов +1.0 -2.6 77 -1 -1 1011.0 979.0
12 20.11 З 2 4000 м 10 баллов +4.2 -0.0 74 +2 +2 1010.0 978.4
15 20.11 З 2 10 км 6 баллов +1.2 -0.6 88 -2 -2 1011.0 979.0
18 20.11 ЮЗ 1 10 км 10 баллов +1.0 -0.5 90 -1 -1 1011.0 979.0 +4.3
21 20.11 З 2 10 км 6 баллов +1.4 -0.4 88 -2 -2 1011.0 979.0
00 21.11 З 2 10 км 10 баллов +1.0 -0.5 90 1010.8 979.0
03 21.11 З 2 10 км 10 баллов +0.8 -1.0 88 -3 -3 1011.0 978.9
06 21.11 З 2 4000 м 10 баллов -0.4 -2.1 88 -4 -4 1012.0 979.8 -0.4
09 21.11 СЗ 2 4000 м 10 баллов +1.3 -1.9 79 -2 -2 1013.0 980.9
12 21.11 СЗ 2 4000 м 10 баллов +1.8 -2.7 72 -1 -1 1012.0 980.0
15 21.11 СЗ 2 10 км 10 баллов +0.8 -2.1 81 -3 -3 1013.0 980.9
18 21.11 СЗ 2 10 км 10 баллов +0.5 -2.0 83 -3 -3 1014.0 981.8 +2.2
21 21.11 З 2 10 км 10 баллов 0.0 -1.4 90 -4 -4 1014.0 981.8
00 22.11 З 1 10 км 10 баллов +0.1 -1.6 88 -2 -2 1015.0 982.7
03 22.11 СЗ 2 10 км 10 баллов -0.4 -1.5 92 -4 -4 1015.0 982.7
06 22.11 З 2 10 км 10 баллов -1.0 -2.3 91 -5 -5 1015.0 982.6 -1.0
09 22.11 СЗ 2 4000 м 10 баллов +0.2 -3.5 76 -3 -3 1016.0 983.7
12 22.11 З 2 4000 м 6 баллов +1.3 -3.9 68 -2 -1 1016.0 983.8
15 22.11 СЗ 1 10 км 6 баллов +0.2 -4.2 72 -2 -2 1018.0 985.6
18 22.11 штиль 0 10 км ясно -2.5 -5.1 82 -4 -4 1019.0 986.3 +1.7
21 22.11 З 1 10 км ясно -3.8 -5.6 87 -6 -6 1020.0 987.1
00 23.11 штиль 0 10 км ясно -5.0 -6.2 91 -6 -6 1021.0 987.9
03 23.11 штиль 0 10 км ясно -5.6 -7.0 90 -7 -7 1022.0 988.8
06 23.11 штиль 0 5000 м дымка 6 баллов -6.1 -6.9 94 -7 -7 1023.0 989.7 -6.1
09 23.11 ЮЗ 1 4000 м 3 балла +0.6 -2.8 78 -1 +1 1023.0 990.5
12 23.11 ЮЗ 1 4000 м 3 балла +3.1 +0.7 84 +2 +3 1022.0 989.9
15 23.11 штиль 0 10 км 3 балла 0.0 -4.1 74 -1 -1 1023.0 990.5
18 23.11 штиль 0 10 км ясно -1.8 -4.0 85 -3 -3 1023.0 990.2 +3.6
21 23.11 ЮВ 1 10 км ясно -3.4 -4.8 90 -6 -6 1023.0 990.1
00 24.11 Ю 1 10 км ясно -2.8 -4.8 86 -5 -5 1023.0 990.1
03 24.11 штиль 0 10 км ясно -4.2 -5.7 89 -5 -5 1023.0 990.0
06 24.11 ЮВ 1 4000 м 10 баллов -4.0 -5.5 89 -6 -6 1023.0 990.0 -4.2
09 24.11 ЮВ 1 4000 м 10 баллов +0.5 -1.9 84 -1 -1 1023.0 990.5
12 24.11 ЮВ 1 4000 м 10 баллов +2.6 -0.7 79 +1 +1 1023.0 990.8

 

Местоположение метеостанции Белополе (Винницкая область, Украина): широта 49.83 долгота 28.88 высота над уровнем моря 258 м.

В архиве по умолчанию представлена погода в Белополе за последнюю неделю. Архивные данные за месяц целиком и за предыдущие месяцы, начиная с января 2011 года, Вы можете получить, выбрав интересующий диапазон дат из раскрывающегося списка и нажав кнопку "Ввод!".

Внимание! Время в таблицах - всемирное. Для получения местного времени необходимо прибавить поправку, которая в Белополе равна 2 ч.

Смотрите также архив погоды в соседних городах и на ближайших метеорологических станциях:

Погода в Житомире (Житомирская область, Украина) (46 км)
Погода в Виннице (Винницкая область, Украина) (70 км)
Погода в Фастове (Киевская область, Украина) (79 км)
Погода в Белой Церкви (Киевская область, Украина) (89 км)
Погода в Жмеринке (Винницкая область, Украина) (103 км)
Погода в Тетереве (Киевская область, Украина) (109 км)
Погода в Жашкове (Черкасская область, Украина) (109 км)
Погода в Хмельнике (Винницкая область, Украина) (110 км)
Погода в Гайсине (Винницкая область, Украина) (121 км)
Погода в Новограде-Волынском (Житомирская область, Украина) (123 км)

Пояснения к столбцам:

Ветер - указаны скорость ветра в м/с - средняя за 10 мин, порывы в срок и между сроками (в фигурных скобках) и направление, откуда дует ветер: С - северный, СВ - северо-восточный, В - восточный, ЮВ - юго-восточный, Ю - южный, ЮЗ - юго-западный, З - западный, СЗ - северо-западный.
Видимость - горизонтальная дальность видимости в метрах или километрах. При видимости от 1 до 10 км при отсутствии осадков обычно наблюдается дымка, при ухудшении видимости до 1 км и менее - туман. В сухую погоду видимость может ухудшаться дымом, пылью или мглою.
Явления - указаны атмосферные явления, наблюдавшиеся в срок или в последний час перед сроком; фигурными скобками обозначены явления, наблюдавшиеся между сроками (за 1-3 часа до срока); квадратными скобками обозначены град или гололедные отложения с указанием их диаметра в мм.
Облачность - указаны через наклонную черту общая и нижняя облачность в баллах и высота нижней границы облаков в метрах; квадратными скобками обозначены формы облаков: Ci - перистые, Cs - перисто-слоистые, Cc - перисто-кучевые, Ac - высококучевые, As - высокослоистые, Sc - слоисто-кучевые, Ns - слоисто-дождевые, Cu - кучевые, Cb - кучево-дождевые. Подробнее классификацию облаков см. в Атласе облаков (PDF).
T - Температура воздуха - температура, измеренная на высоте 2 м над землей.
Td - Температура точки росы - температура, при понижении до которой содержащийся в воздухе водяной пар достигнет насыщения.
f - Относительная влажность воздуха - влажноcть воздуха, измеренная на высоте 2 м над землей.
Te - Эффективная температура - температура, которую ощущает одетый по сезону человек в тени. Характеристика душности погоды. При расчете учитывается влияние влажности воздуха и скорости ветра на теплоощущения человека.
Tes - Эффективная температура на солнце - температура, которую ощущает человек, с поправкой на солнечный нагрев. Характеристика знойности погоды. Зависит от высоты солнца над горизонтом, облачности и скорости ветра. Ночью, в пасмурную погоду, а также при ветре 12 м/с и более поправка равна нулю.
P - Атмосферное давление - приведенное к уровню моря атмосферное давление.
Po - Атмосферное давление - измеренное на уровне метеостанции атмосферное давление.
Tmin - Минимальная температура - минимум температуры воздуха на высоте 2 м над землей.
Tmax - Максимальная температура - максимум температуры воздуха на высоте 2 м над землей.
R - Количество осадков - Количество выпавших осадков за период времени, мм. При наведении курсора мыши на число - период времени, за который выпало указанное количество осадков.
R24 - Количество осадков - Количество выпавших осадков за 24 часа, мм.
S - Снежный покров - Высота снежного покрова, см. При наведении курсора мыши на число - состояние снежного покрова и степень покрытия местности в баллах.